map of PHC home
PHC - Airport
Location
City:  Port Harcourt, Rivers, Nigeria
Near (Alt.):Omagwa
Name:Port Harcourt International Airport
ICAO:DNPO
IATA:PHC

Details
Type:Airport (Aerodrome, Airfield)
Use:Public/Civil, International (customs port of entry)
Latitude:500'56"N (5.015494)
Longitude:656'59"E (6.949594)
Datum:WGS 1984
Elevation:87 ft (27 m)
Variation:1.53W (WMM2015 magnetic declination)
0.11 annual change
Runways:1
Longest:9846 × 197 ft (3001 × 60 m), paved

Time
Time Zone:UTC+1
Local Time:

Weather
METAR:DNPO 251200Z 25006KT 9999 BKN010 FEW020CB 30/25 Q1011 NOSIG
TAF:DNPO 242200Z 2500/2606 VBB02KT 8000 BKN008
TEMPO 2500/2510 23007KT BKN010 FEW020CB

Related Locations
Nearby:
Farthest:CIS: 12255 mi / 19722 km
Kanton Island (Canton Island, Abariringa Island) [Canton Island Airport], P, KI

Find:

   beyond  
but within

Other Information
Maps:
NOTAMs:
Links:
Sources:

  
  • flag of Nigeria
  

Sectional Chart

Flight Planning
at skyvector.com

Satellite Image

Google Maps Satellite view

 

Copyright © 2004-2018 Karl L. Swartz. All rights reserved.
The Great Circle Mapper name and logo are trademarks of the Great Circle Mapper.
All other trademarks mentioned herein belong to their respective owners.
Please see credits for attibutions and further copyright information.

  Follow gcmap on Facebook Follow gcmap on Twitter Follow gcmap on Google+ GCmap on LinkedIn

hCard Microformat

Geo Microformat